Location: Eastlake (historical)
(39.0077°N, 122.6678°W)
Time: 05:40:18
(UTC+00:00)

Cosmos 405 Rocket - Pass Details

Date: 25 November 2020
Orbit: 489 x 554 km, 81.3° (Epoch: 27 January)

Event Time Altitude Azimuth Distance (km) Brightness Sun altitude
Rises 14:21:05 0° 189° (S) 2,547 6.4 -8.7°
Reaches altitude 10° 14:23:11 10° 190° (S) 1,671 5.4 -8.3°
Maximum altitude 14:26:50 83° 276° (W) 500 2.5 -7.6°
Drops below altitude 10° 14:30:33 10° 7° (N) 1,697 5.2 -7.0°
Sets 14:32:41 0° 9° (N) 2,592 6.1 -6.6°
